C/2024 N3 ( Sarneczky )

Japanese version
Home page
Updated on October 1, 2025

---------------------------------------------------------------------

* Profile

Discovery Date July 8, 2024
Magnitude 19.6 mag
Discoverer Krisztian Sarneczky (Piszkesteto Observatory in Hungary)

* Pictures

* Orbital Elements

Epoch 2025 May 5.0 TT = JDT 2460800.5
T 2025 Apr. 11.42036 TT                                 Pike
q   5.0145770            (2000.0)            P               Q
z  -0.0002580      Peri.   86.88303     -0.01497019     -0.12965032
 +/-0.0000013      Node    82.60873     -0.34500359     -0.92999372
e   1.0012936      Incl.   88.72896     +0.93848198     -0.34395126
From 476 observations 2023 Oct. 9-2025 Aug. 3, mean residual 0".5.

* Magnitudes Graph

        m1 = 0.0 + 5 log d + 20.0 log r(t - 100)

---------------------------------------------------------------------

The orbital elements are published on M.P.E.C. 2025-P113.
The magnitudes graphs are made with Comet for Windows.

---------------------------------------------------------------------

Copyright(C) Seiichi Yoshida (comet@aerith.net). All rights reserved.